[[{"header":{"parameterUnit":"m.s-1","parameterCategory":1,"la1":30.2991,"la2":30.254,"lo1":-89.0895,"lo2":-89.0444,"dy":0.0017,"dx":0.0017,"nx":28,"ny":28,"refTime":"2025-06-06T09:00:00:Z","depth":0,"parameterNumber":2,"parameterNumberName":"U-component_of_WINDS"},"data":[0,0,0,0,0,0,0,0,0,0,0,0,0,0,0,0,0,0,0,0,0,0,0,0,0,0,0,0,0,0,0,0,0,0,0,0,0,0,0,0,0,0,0,0,0,0,0,0,0,0,0,0,0,0,0,0,0,0,0.0603,0.0604,0,0.0705,0.0707,0.0708,0.0761,0.0761,0.0762,0.0762,0.087,0.0873,0.0875,0,0,0,0,0,0,0,0,0,0,0,0,0,0.0456,0.0458,0.0603,0.0604,0.0605,0.0705,0.0707,0.0708,0.0761,0.0761,0.0762,0.0762,0.0869,0.0872,0.0876,0,0,0,0,0,0,0,0,0,0,0,0,0,0.0535,0.0459,0.0603,0.0644,0.0649,0.0705,0.0707,0.0708,0.0761,0.0761,0.0762,0.0762,0.0868,0.0872,0.0876,0.09,0,0,0.0889,0.0891,0,0,0,0,0,0,0,0,0.0531,0.0541,0.0637,0.0641,0.0647,0.0721,0.0695,0.0773,0.0761,0.0719,0.0762,0.0762,0.082,0.0829,0.0848,0.0905,0.091,0.0889,0.0892,0.0894,0.0895,0,0,0,0,0,0,0,0.0525,0.0537,0.0644,0.0638,0.0644,0.0658,0.067,0.071,0.0768,0.0722,0.0727,0.0738,0.0823,0.0843,0.0851,0.0911,0.0889,0.0893,0.0896,0.0897,0.0994,0.0994,0,0,0,0,0,0,0.0513,0.0532,0.064,0.0647,0.0588,0.0661,0.0674,0.0697,0.0767,0.0778,0.0738,0.074,0.0836,0.0846,0.0855,0.0887,0.0894,0.0898,0.09,0.0994,0.0994,0.0994,0,0,0,0,0,0,0.0509,0.0522,0.0636,0.059,0.0606,0.0663,0.0689,0.0699,0.0719,0.0779,0.079,0.0747,0.0837,0.0849,0.0888,0.0892,0.09,0.0903,0.0994,0.0994,0.0994,0.0953,0,0,0,0,0,0,0.0505,0.052,0.0529,0.059,0.0608,0.0667,0.0689,0.0701,0.0726,0.073,0.0791,0.0801,0.0838,0.0882,0.0892,0.0898,0.0907,0.0994,0.0994,0.0994,0.0954,0.0951,0.0949,0,0,0,0,0,0.0499,0.0514,0.0529,0.0542,0.062,0.0667,0.0677,0.0718,0.0726,0.0736,0.0774,0.0799,0.0889,0.0885,0.0898,0.0905,0.0994,0.0994,0.0994,0.0955,0.0952,0.0949,0,0,0,0,0,0,0.0453,0.0523,0.0541,0.0575,0.0615,0.0676,0.069,0.0713,0.0752,0.0754,0.0804,0.0817,0.0852,0.0883,0.0876,0.0932,0.0944,0.0947,0.0911,0.0908,0.0905,0.0898,0.091,0,0,0,0,0,0.0447,0.0478,0.0538,0.0563,0.0581,0.0632,0.0654,0.0681,0.0725,0.0742,0.0784,0.0825,0.0863,0.0887,0.0926,0.0959,0.0973,0.097,0.0967,0.0965,0.0967,0.0987,0.0986,0.0994,0.0994,0.0994,0,0,0.0435,0.0477,0.0494,0.0554,0.0588,0.062,0.0646,0.0679,0.0703,0.0748,0.0787,0.0819,0.0869,0.0905,0.0923,0.0932,0.0967,0.0965,0.0963,0.0966,0.0987,0.0986,0.0985,0.0994,0.0994,0.0994,0,0,0.0429,0.0463,0.0488,0.0521,0.0571,0.0605,0.0611,0.0668,0.0691,0.0731,0.0765,0.0795,0.086,0.0894,0.092,0.0926,0.0951,0.0937,0.0925,0.0944,0.0943,0.0943,0.0945,0.0946,0.0939,0.0939,0.0939,0,0.0407,0.0456,0.0498,0.0529,0.0555,0.0595,0.0621,0.0651,0.0712,0.0729,0.0737,0.0818,0.0855,0.09,0.0901,0.0921,0.093,0.0931,0.0939,0.094,0.094,0.0943,0.0944,0.0937,0.0937,0.0937,0.0938,0,0.0427,0.0461,0.0475,0.0531,0.0559,0.0587,0.0633,0.0657,0.0682,0.0715,0.0755,0.0801,0.0849,0.0861,0.0887,0.091,0.0914,0.093,0.0944,0.0936,0.094,0.0942,0.0934,0.0935,0.0935,0.0936,0,0,0.0396,0.0474,0.0479,0.0505,0.0563,0.059,0.062,0.0666,0.0685,0.0726,0.0753,0.0806,0.0821,0.085,0.088,0.0897,0.0899,0.0911,0.0913,0.0908,0.0928,0.0916,0.0916,0.0916,0.0916,0.0916,0.0924,0,0.0398,0.0453,0.0491,0.0532,0.0563,0.0602,0.0628,0.0667,0.0699,0.0731,0.0767,0.0803,0.082,0.0838,0.0856,0.0895,0.0904,0.0895,0.0942,0.0944,0.0929,0.0918,0.0906,0.0911,0.0926,0.0926,0.0926,0,0.0408,0.0446,0.0489,0.0544,0.0559,0.0582,0.0627,0.0657,0.0702,0.0724,0.0756,0.0787,0.0821,0.0831,0.088,0.0873,0.0895,0.0917,0.0918,0.0924,0.0935,0.0925,0.0913,0.0914,0.0929,0.0929,0.0929,0,0.0381,0.0443,0.0477,0.0498,0.0563,0.0578,0.0606,0.0652,0.0677,0.0717,0.0733,0.0777,0.0801,0.0835,0.0876,0.088,0.0921,0.0935,0.0941,0.094,0.0948,0.0947,0.094,0.0961,0.0961,0.0961,0.0961,0,0.0379,0.0404,0.0465,0.0486,0.0515,0.0559,0.0588,0.0619,0.0659,0.0687,0.0724,0.075,0.0803,0.0836,0.0869,0.0905,0.0915,0.0935,0.0943,0.0931,0.0929,0.0947,0.0948,0.0961,0.0961,0.0961,0.0961,0,0.0354,0.0395,0.0435,0.0493,0.0508,0.0527,0.0577,0.06,0.0633,0.0668,0.0679,0.0732,0.0772,0.0817,0.0873,0.0895,0.0929,0.0941,0.0913,0.0918,0.0921,0.092,0.0926,0.0929,0.0947,0.0947,0.0947,0,0.035,0.037,0.043,0.0451,0.0478,0.0511,0.0537,0.0581,0.0607,0.066,0.0676,0.0719,0.0756,0.0819,0.0863,0.0906,0.0919,0.0918,0.0926,0.0914,0.092,0.0918,0.0921,0.0916,0.0915,0.0915,0.0915,0,0.034,0.0359,0.0394,0.0436,0.0465,0.0501,0.0538,0.0553,0.0606,0.0632,0.0673,0.0702,0.0758,0.0801,0.0849,0.0879,0.0906,0.0912,0.0916,0.0904,0.0887,0.0897,0.0907,0.0912,0.0912,0.0912,0.0912,0.0912,0.0325,0.0345,0.039,0.0428,0.046,0.0494,0.0517,0.0553,0.0588,0.0636,0.0661,0.0702,0.0748,0.0815,0.0845,0.0878,0.0887,0.0892,0.0894,0.0894,0.0891,0.0881,0.0887,0.0887,0.0888,0.0888,0.0888,0,0.0317,0.0347,0.0382,0.0432,0.0462,0.0483,0.0525,0.0549,0.0584,0.0624,0.0659,0.0707,0.0748,0.0795,0.084,0.0858,0.0871,0.0868,0.0867,0.0874,0.0881,0.0873,0.0856,0.0856,0.0856,0.0856,0.0856,0.0856,0.0316,0.035,0.0375,0.0426,0.0457,0.0496,0.0519,0.055,0.0582,0.0633,0.0668,0.0697,0.0741,0.0789,0.0828,0.0841,0.0856,0.0849,0.0865,0.0871,0.0874,0.0876,0.0869,0.0852,0.0852,0.0856,0.0856,0.0856]},{"header":{"parameterUnit":"m.s-1","parameterCategory":1,"la1":30.2991,"la2":30.254,"lo1":-89.0895,"lo2":-89.0444,"dy":0.0017,"dx":0.0017,"nx":28,"ny":28,"refTime":"2025-06-06T09:00:00:Z","depth":0,"parameterNumber":3,"parameterNumberName":"V-component_of_WINDS"},"data":[0,0,0,0,0,0,0,0,0,0,0,0,0,0,0,0,0,0,0,0,0,0,0,0,0,0,0,0,0,0,0,0,0,0,0,0,0,0,0,0,0,0,0,0,0,0,0,0,0,0,0,0,0,0,0,0,0,0,4.2755,4.2755,0,4.2777,4.2778,4.2778,4.2746,4.2745,4.2744,4.2743,4.2762,4.2763,4.2765,0,0,0,0,0,0,0,0,0,0,0,0,0,4.268,4.2682,4.2755,4.2755,4.2755,4.2777,4.2778,4.2778,4.2746,4.2745,4.2743,4.2742,4.2761,4.2763,4.2765,0,0,0,0,0,0,0,0,0,0,0,0,0,4.2709,4.2682,4.2755,4.2742,4.2741,4.2777,4.2778,4.2778,4.2746,4.2745,4.2743,4.2741,4.2761,4.2763,4.2765,4.2813,0,0,4.2772,4.2773,0,0,0,0,0,0,0,0,4.2707,4.2711,4.2744,4.2743,4.2742,4.2757,4.2758,4.279,4.2747,4.2744,4.2742,4.2741,4.2761,4.2763,4.2771,4.2814,4.2815,4.2773,4.2774,4.2775,4.2776,0,0,0,0,0,0,0,4.2705,4.271,4.2763,4.2744,4.2743,4.2734,4.2736,4.2764,4.2762,4.2744,4.2742,4.2745,4.276,4.2769,4.2772,4.2815,4.2772,4.2775,4.2776,4.2777,4.2901,4.2903,0,0,0,0,0,0,4.2705,4.2709,4.2763,4.2764,4.272,4.2737,4.2739,4.2754,4.2761,4.2761,4.2747,4.2744,4.2766,4.2769,4.2772,4.2831,4.2775,4.2777,4.2778,4.2899,4.2901,4.2903,0,0,0,0,0,0,4.2704,4.271,4.2762,4.2736,4.2742,4.274,4.2757,4.2755,4.2764,4.2763,4.2762,4.2756,4.2765,4.2769,4.2804,4.2831,4.2778,4.278,4.2897,4.29,4.2902,4.2947,0,0,0,0,0,0,4.2702,4.271,4.2729,4.2737,4.2743,4.2795,4.2758,4.2757,4.2769,4.2765,4.2772,4.2772,4.2764,4.2801,4.2806,4.2833,4.2782,4.2894,4.2898,4.2901,4.2943,4.2951,4.2958,0,0,0,0,0,4.2699,4.2739,4.273,4.2737,4.2767,4.2796,4.28,4.2791,4.2771,4.279,4.279,4.2771,4.2827,4.2805,4.2811,4.2838,4.2893,4.2897,4.2901,4.294,4.295,4.2958,0,0,0,0,0,0,4.2732,4.274,4.273,4.2774,4.2785,4.2791,4.2814,4.2801,4.2817,4.2813,4.28,4.2802,4.284,4.2842,4.2818,4.2886,4.2856,4.2862,4.2884,4.2893,4.29,4.2899,4.2784,0,0,0,0,0,4.2745,4.2769,4.2774,4.2812,4.2818,4.2816,4.2828,4.282,4.2831,4.2835,4.2837,4.2847,4.2866,4.2879,4.2897,4.2943,4.2945,4.2965,4.2973,4.2979,4.2984,4.301,4.302,4.2917,4.2917,4.2917,0,0,4.2771,4.2778,4.2794,4.2819,4.2827,4.2852,4.2819,4.2846,4.2864,4.2838,4.2873,4.2875,4.2885,4.2926,4.2944,4.2929,4.3013,4.2984,4.2989,4.2991,4.3015,4.3025,4.3034,4.292,4.292,4.2919,0,0,4.2831,4.2839,4.2873,4.2882,4.2895,4.2893,4.2901,4.291,4.2911,4.2945,4.2927,4.2947,4.2981,4.299,4.2998,4.3064,4.3049,4.307,4.3109,4.3134,4.3142,4.3149,4.3174,4.3183,4.3075,4.3075,4.3075,0,4.2861,4.2899,4.2891,4.2921,4.2933,4.2912,4.2946,4.2955,4.2972,4.2981,4.2964,4.3007,4.3012,4.3056,4.3073,4.308,4.3089,4.307,4.3142,4.3149,4.3155,4.3179,4.3188,4.3078,4.3078,4.3077,4.3077,0,4.2937,4.2963,4.2989,4.3009,4.3024,4.3055,4.3051,4.3067,4.3059,4.3058,4.3094,4.31,4.312,4.3129,4.312,4.3172,4.3163,4.3144,4.3114,4.3168,4.319,4.3199,4.3082,4.3081,4.308,4.3079,0,0,4.3018,4.3035,4.3045,4.3055,4.3068,4.3088,4.3119,4.314,4.3154,4.3167,4.3193,4.3223,4.3206,4.3216,4.3208,4.323,4.3284,4.3209,4.3209,4.3224,4.3343,4.3359,4.3369,4.3273,4.3275,4.3276,4.3343,0,4.3079,4.3135,4.3129,4.3181,4.3207,4.3188,4.3215,4.3226,4.3227,4.3247,4.3247,4.3269,4.3245,4.3251,4.3272,4.3273,4.3308,4.3268,4.3297,4.3298,4.3297,4.338,4.3396,4.3459,4.3351,4.3353,4.3354,0,4.3159,4.3178,4.3233,4.3246,4.3256,4.328,4.33,4.332,4.3332,4.3331,4.3343,4.3332,4.3362,4.3331,4.3373,4.3346,4.3357,4.3359,4.3361,4.3365,4.333,4.3387,4.3478,4.3488,4.3367,4.3366,4.3365,0,4.3215,4.3253,4.3292,4.3301,4.3316,4.3334,4.334,4.3351,4.3364,4.3381,4.339,4.3409,4.342,4.3435,4.3429,4.3406,4.3472,4.344,4.3472,4.3473,4.3488,4.3487,4.3584,4.3493,4.3493,4.3493,4.3493,0,4.3285,4.332,4.3318,4.3342,4.3381,4.3374,4.3412,4.3416,4.3426,4.345,4.3434,4.3456,4.3446,4.3468,4.3463,4.3499,4.3503,4.3504,4.3502,4.3506,4.3506,4.3514,4.351,4.3495,4.3495,4.3494,4.3494,0,4.3354,4.3354,4.3396,4.3407,4.3411,4.3439,4.3448,4.347,4.3471,4.3501,4.3508,4.3507,4.3532,4.3528,4.3554,4.3551,4.3597,4.3589,4.3594,4.3592,4.3626,4.3623,4.3731,4.3746,4.3645,4.3646,4.3647,0,4.3399,4.3427,4.3442,4.3458,4.3467,4.3492,4.3507,4.3501,4.3517,4.3534,4.3554,4.3578,4.3597,4.3637,4.3639,4.3659,4.3653,4.3689,4.3656,4.366,4.3655,4.3655,4.3658,4.3696,4.3698,4.3698,4.3699,0,4.3481,4.348,4.3503,4.3527,4.3546,4.3564,4.358,4.3593,4.3588,4.3607,4.3634,4.3649,4.3677,4.3701,4.3721,4.3726,4.3712,4.371,4.3719,4.3724,4.3726,4.3727,4.3614,4.3707,4.3707,4.3706,4.3706,4.3705,4.354,4.3565,4.358,4.3607,4.3619,4.3635,4.3657,4.3661,4.3684,4.3709,4.3703,4.3733,4.3745,4.3771,4.3778,4.3801,4.3788,4.38,4.3803,4.3807,4.3812,4.3721,4.3804,4.3804,4.3804,4.3804,4.3803,0,4.3623,4.3632,4.3657,4.3682,4.3703,4.369,4.3707,4.3725,4.3753,4.3766,4.3786,4.3817,4.3841,4.3845,4.3867,4.3885,4.3879,4.3891,4.389,4.3892,4.3822,4.3813,4.3896,4.3896,4.3896,4.3896,4.3896,4.3896,4.3668,4.3709,4.3711,4.3757,4.3766,4.3798,4.3809,4.3823,4.3835,4.3871,4.3892,4.3895,4.3904,4.3928,4.3949,4.3949,4.3959,4.3974,4.3972,4.3906,4.3897,4.3888,4.388,4.3975,4.3975,4.404,4.4041,4.4041]}]]